GW2622 Weather Reports


Display with metric or nautical units.
time (UTC)temp
F
wind
direction
speed
MPH
gust
MPH
rain 1hr
in
rain 24hr
in
rain mn
in
humidity
%
barometer
mb
20260906065142 77 166 2.0 3.0 0.00 0.00 0.00 98 1016.8
20260906064637 77 104 4.0 6.0 0.00 0.00 0.00 98 1016.6
20260906064132 77 47 5.0 8.0 0.00 0.00 0.00 98 1016.6
20260906063627 77 113 7.0 9.0 0.00 0.00 0.00 99 1016.6
20260906063118 77 353 0.0 6.0 0.00 0.00 0.00 99 1016.7
20260906062614 77 79 2.0 7.0 0.00 0.00 0.00 99 1016.6
20260906062112 77 85 0.0 5.0 0.00 0.00 0.00 99 1016.8
20260906061609 78 70 2.0 5.0 0.00 0.00 0.00 99 1016.9
20260906061108 78 308 0.0 2.0 0.00 0.00 0.00 99 1016.8
20260906060605 78 132 4.0 5.0 0.00 0.00 0.00 99 1016.7
20260906055557 78 80 2.0 6.0 0.00 0.00 0.00 98 1016.8
20260906055052 78 302 0.0 3.0 0.00 0.00 0.00 98 1016.9
20260906054547 78 229 2.0 3.0 0.00 0.00 0.00 98 1016.9
20260906054042 78 103 2.0 3.0 0.00 0.00 0.00 98 1016.6
20260906053538 79 74 5.0 6.0 0.00 0.00 0.00 98 1016.7
20260906053034 79 20 1.0 6.0 0.00 0.00 0.00 98 1016.9
20260906052529 79 97 3.0 7.0 0.00 0.00 0.00 98 1017.0
20260906052026 79 89 2.0 9.0 0.00 0.00 0.00 97 1016.8
20260906051521 79 79 3.0 8.0 0.00 0.00 0.00 97 1016.8
20260906051017 79 53 2.0 6.0 0.00 0.00 0.00 97 1016.5
20260906050512 80 76 3.0 3.0 0.00 0.00 0.00 97 1016.6
20260906050006 79 95 1.0 7.0 0.00 0.00 0.00 97 1016.6
20260906045505 79 78 3.0 5.0 0.00 0.00 0.00 97 1016.6
20260906045001 78 72 3.0 3.0 0.00 0.00 0.00 98 1016.6
20260906044455 78 123 3.0 3.0 0.00 0.00 0.00 98 1016.6
20260906043951 78 7 1.0 3.0 0.00 0.00 0.00 98 1016.7
20260906043447 78 351 0.0 1.0 0.00 0.00 0.00 98 1016.5
20260906042943 78 351 0.0 0.0 0.00 0.00 0.00 98 1016.6
20260906042442 78 50 1.0 1.0 0.00 0.00 0.00 98 1016.5
20260906041936 78 14 1.0 2.0 0.00 0.00 0.00 98 1016.4
20260906041432 78 349 0.0 1.0 0.00 0.00 0.00 98 1016.3
20260906040926 79 349 0.0 0.0 0.00 0.00 0.00 97 1016.3
20260906040422 79 349 0.0 1.0 0.00 0.00 0.00 97 1016.3
20260906035917 79 358 1.0 1.0 0.00 0.00 0.00 97 1016.2
20260906035412 79 354 1.0 1.0 0.00 0.00 0.00 97 1016.2
20260906034908 79 332 0.0 0.0 0.00 0.00 0.00 97 1016.2
20260906034402 79 343 0.0 1.0 0.00 0.00 0.00 97 1016.4
20260906033858 79 352 0.0 1.0 0.00 0.00 0.00 97 1016.1
20260906033357 79 351 0.0 0.0 0.00 0.00 0.00 97 1016.2
20260906032853 79 351 0.0 0.0 0.00 0.00 0.00 96 1016.3
20260906032349 80 351 0.0 0.0 0.00 0.00 0.00 96 1016.2
20260906031844 80 351 0.0 0.0 0.00 0.00 0.00 95 1016.1
20260906031339 80 351 0.0 0.0 0.00 0.00 0.00 95 1016.3
20260906030839 80 352 0.0 1.0 0.00 0.00 0.00 95 1015.9
20260906030335 80 353 0.0 0.0 0.00 0.00 0.00 95 1016.0
20260906025829 80 352 0.0 0.0 0.00 0.00 0.00 95 1016.1
20260906025323 80 352 0.0 0.0 0.00 0.00 0.00 94 1015.9
20260906024822 81 353 0.0 1.0 0.00 0.00 0.00 94 1015.9
20260906024321 81 351 0.0 0.0 0.00 0.00 0.00 94 1015.8
20260906023817 81 344 0.0 0.0 0.00 0.00 0.00 93 1015.8
20260906023312 81 342 0.0 0.0 0.00 0.00 0.00 93 1015.7
20260906022808 81 342 0.0 5.0 0.00 0.00 0.00 92 1015.4
20260906022306 81 349 0.0 1.0 0.00 0.00 0.00 92 1015.4
20260906021759 81 351 0.0 2.0 0.00 0.00 0.00 92 1015.5
20260906021258 82 7 0.0 3.0 0.00 0.00 0.00 92 1015.5
20260906020752 82 79 2.0 2.0 0.00 0.00 0.00 92 1015.3
20260906020246 82 35 1.0 2.0 0.00 0.00 0.00 92 1015.3
20260906015741 82 351 0.0 2.0 0.00 0.00 0.00 92 1015.2
20260906015239 82 342 0.0 1.0 0.00 0.00 0.00 92 1015.1
20260906014734 82 345 0.0 1.0 0.00 0.00 0.00 92 1015.1
20260906014230 82 64 1.0 2.0 0.00 0.00 0.00 91 1014.9
20260906013721 82 301 0.0 2.0 0.00 0.00 0.00 91 1014.8
20260906013221 82 318 0.0 1.0 0.00 0.00 0.00 91 1014.9
20260906012715 82 337 0.0 1.0 0.00 0.00 0.00 91 1014.9
20260906012210 83 335 0.0 0.0 0.00 0.00 0.00 91 1014.8
20260906011705 83 335 0.0 2.0 0.00 0.00 0.00 90 1014.8
20260906011200 83 353 1.0 1.0 0.00 0.00 0.00 90 1014.8
20260906010655 83 26 1.0 2.0 0.00 0.00 0.00 90 1014.8
20260906010152 83 344 0.0 1.0 0.00 0.00 0.00 90 1014.8
20260906005651 84 339 0.0 1.0 0.00 0.00 0.00 89 1014.7
20260906005151 84 351 0.0 1.0 0.00 0.00 0.00 89 1014.7
20260906004649 84 349 0.0 0.0 0.00 0.00 0.00 88 1014.8
20260906004144 85 349 0.0 0.0 0.00 0.00 0.00 88 1014.6
20260906003640 85 348 0.0 1.0 0.00 0.00 0.00 86 1014.6
20260906003136 85 80 2.0 2.0 0.00 0.00 0.00 85 1014.5
20260906002630 86 357 0.0 3.0 0.00 0.00 0.00 85 1014.5
20260906002119 86 352 1.0 2.0 0.00 0.00 0.00 84 1014.7
20260906001615 86 356 1.0 3.0 0.00 0.00 0.00 83 1014.6
20260906001114 87 348 1.0 2.0 0.00 0.00 0.00 82 1014.4
20260906000611 87 43 2.0 3.0 0.00 0.00 0.00 81 1014.6
20260906000106 87 40 3.0 6.0 0.00 0.00 0.00 81 1014.6
20260905235605 87 85 3.0 6.0 0.00 0.00 0.00 80 1014.5
20260905235100 88 80 4.0 7.0 0.00 0.00 0.00 79 1014.5
20260905234555 88 111 5.0 6.0 0.00 0.00 0.00 78 1014.6
20260905234050 88 41 3.0 8.0 0.00 0.00 0.00 79 1014.5
20260905233544 88 23 2.0 6.0 0.00 0.00 0.00 79 1014.6
20260905233045 89 87 3.0 5.0 0.00 0.00 0.00 79 1014.5
20260905232540 89 29 0.0 3.0 0.00 0.00 0.00 79 1014.5
20260905232035 89 26 1.0 3.0 0.00 0.00 0.00 77 1014.4
20260905231531 89 58 3.0 6.0 0.00 0.00 0.00 76 1014.5
20260905231027 90 337 0.0 3.0 0.00 0.00 0.00 77 1014.4
20260905230526 90 34 3.0 5.0 0.00 0.00 0.00 77 1014.6
20260905230025 91 356 1.0 1.0 0.00 0.00 0.00 76 1014.6
20260905225519 90 332 2.0 6.0 0.00 0.00 0.00 76 1014.5
20260905225015 90 24 2.0 7.0 0.00 0.00 0.00 76 1014.5
20260905224509 90 344 1.0 3.0 0.00 0.00 0.00 78 1014.5
20260905224009 90 334 0.0 3.0 0.00 0.00 0.00 77 1014.5
20260905223507 90 4 2.0 6.0 0.00 0.00 0.00 77 1014.2
20260905223001 90 343 3.0 7.0 0.00 0.00 0.00 76 1014.4
20260905222456 91 43 2.0 6.0 0.00 0.00 0.00 76 1014.5
20260905221951 92 18 2.0 3.0 0.00 0.00 0.00 75 1014.3
20260905221448 91 28 1.0 5.0 0.00 0.00 0.00 75 1014.4
20260905220944 91 102 4.0 6.0 0.00 0.00 0.00 75 1014.5
20260905220440 91 40 3.0 5.0 0.00 0.00 0.00 75 1014.4
20260905215938 91 97 2.0 2.0 0.00 0.00 0.00 74 1014.4
20260905215434 92 236 1.0 6.0 0.00 0.00 0.00 73 1014.6
20260905214930 91 336 1.0 3.0 0.00 0.00 0.00 77 1014.4
20260905214425 91 297 1.0 3.0 0.00 0.00 0.00 75 1014.4
20260905213920 91 327 1.0 5.0 0.00 0.00 0.00 74 1014.2
20260905213416 91 47 3.0 5.0 0.00 0.00 0.00 74 1014.3
20260905212912 91 328 1.0 7.0 0.00 0.00 0.00 75 1014.5
20260905212406 91 322 1.0 6.0 0.00 0.00 0.00 77 1014.6
20260905211905 91 338 1.0 3.0 0.00 0.00 0.00 76 1014.5
20260905211401 91 139 2.0 5.0 0.00 0.00 0.00 76 1014.5
20260905210857 91 320 2.0 3.0 0.00 0.00 0.00 78 1014.1
20260905210356 90 48 1.0 2.0 0.00 0.00 0.00 75 1014.4
20260905205856 90 14 2.0 5.0 0.00 0.00 0.00 77 1014.4
20260905205350 90 61 2.0 3.0 0.00 0.00 0.00 75 1014.5
20260905204844 91 327 1.0 3.0 0.00 0.00 0.00 76 1014.4
20260905204340 91 267 1.0 5.0 0.00 0.00 0.00 73 1014.5
20260905203833 92 2 4.0 7.0 0.00 0.00 0.00 71 1014.5
20260905203330 94 48 4.0 8.0 0.00 0.00 0.00 69 1014.6
20260905202825 93 314 0.0 3.0 0.00 0.00 0.00 70 1014.6
20260905202319 94 23 2.0 5.0 0.00 0.00 0.00 69 1014.6
20260905201815 93 284 2.0 2.0 0.00 0.00 0.00 68 1014.6
20260905201311 92 329 0.0 6.0 0.00 0.00 0.00 71 1014.6
20260905200805 92 344 3.0 6.0 0.00 0.00 0.00 72 1014.7
20260905200301 93 351 2.0 6.0 0.00 0.00 0.00 71 1014.8
20260905195759 93 350 6.0 8.0 0.00 0.00 0.00 70 1014.9
20260905195254 93 317 2.0 5.0 0.00 0.00 0.00 69 1014.9
20260905194749 93 93 5.0 8.0 0.00 0.00 0.00 69 1015.0
20260905194248 93 37 4.0 7.0 0.00 0.00 0.00 69 1015.2
20260905193743 92 60 2.0 5.0 0.00 0.00 0.00 69 1015.4
20260905193237 92 15 7.0 8.0 0.00 0.00 0.00 71 1015.5
20260905192727 93 6 4.0 7.0 0.00 0.00 0.00 72 1015.3
20260905192224 91 62 1.0 5.0 0.00 0.00 0.00 72 1015.4
20260905191723 92 350 4.0 9.0 0.00 0.00 0.00 71 1015.7
20260905191221 91 308 4.0 9.0 0.00 0.00 0.00 73 1015.7
20260905190720 91 10 6.0 9.0 0.00 0.00 0.00 69 1015.6
20260905190219 91 11 7.0 8.0 0.00 0.00 0.00 69 1015.9
20260905185718 91 7 5.0 6.0 0.00 0.00 0.00 67 1016.0
20260905185213 91 338 6.0 7.0 0.00 0.00 0.00 69 1015.9
20260905184713 91 16 3.0 6.0 0.00 0.00 0.00 71 1016.0
20260905184212 91 12 2.0 7.0 0.00 0.00 0.00 71 1016.0
20260905183706 91 352 3.0 7.0 0.00 0.00 0.00 72 1016.1
20260905183202 92 19 4.0 6.0 0.00 0.00 0.00 71 1016.1
20260905182700 90 1 2.0 9.0 0.00 0.00 0.00 72 1016.0
20260905182154 91 325 2.0 6.0 0.00 0.00 0.00 70 1016.0
20260905181650 92 333 3.0 9.0 0.00 0.00 0.00 69 1016.2
20260905181143 92 4 4.0 6.0 0.00 0.00 0.00 68 1016.2
20260905180638 92 6 3.0 5.0 0.00 0.00 0.00 67 1016.1
20260905180133 91 357 4.0 8.0 0.00 0.00 0.00 67 1016.0
20260905175632 91 352 5.0 6.0 0.00 0.00 0.00 69 1016.4
20260905175128 92 18 4.0 6.0 0.00 0.00 0.00 67 1016.3
20260905174624 93 20 3.0 5.0 0.00 0.00 0.00 64 1016.2
20260905174118 94 334 3.0 5.0 0.00 0.00 0.00 65 1016.2
20260905173615 92 303 0.0 3.0 0.00 0.00 0.00 66 1016.3
20260905173110 92 312 0.0 3.0 0.00 0.00 0.00 67 1016.3
20260905172608 93 297 3.0 3.0 0.00 0.00 0.00 67 1016.2
20260905172103 92 293 2.0 3.0 0.00 0.00 0.00 66 1016.3
20260905171600 90 336 1.0 3.0 0.00 0.00 0.00 69 1016.3
20260905171056 91 286 2.0 2.0 0.00 0.00 0.00 69 1016.2
20260905170552 91 313 0.0 0.0 0.00 0.00 0.00 71 1016.3
20260905170047 90 327 1.0 3.0 0.00 0.00 0.00 71 1016.0
20260905165542 90 358 3.0 3.0 0.00 0.00 0.00 72 1016.1
20260905165032 89 339 2.0 6.0 0.00 0.00 0.00 71 1016.0
20260905164532 90 9 5.0 7.0 0.00 0.00 0.00 71 1016.3
20260905164027 91 308 3.0 3.0 0.00 0.00 0.00 71 1016.4
20260905163523 90 301 1.0 1.0 0.00 0.00 0.00 72 1016.3
20260905163018 89 357 2.0 3.0 0.00 0.00 0.00 74 1016.4
20260905162514 89 286 2.0 3.0 0.00 0.00 0.00 73 1016.2
20260905162008 88 310 2.0 5.0 0.00 0.00 0.00 76 1016.6
20260905161503 88 318 2.0 3.0 0.00 0.00 0.00 75 1016.3
20260905161000 88 290 2.0 3.0 0.00 0.00 0.00 75 1016.6
20260905160454 87 307 2.0 5.0 0.00 0.00 0.00 79 1016.5
20260905155953 87 322 3.0 5.0 0.00 0.00 0.00 78 1016.4
20260905155448 87 318 2.0 2.0 0.00 0.00 0.00 78 1016.4
20260905154947 86 303 1.0 2.0 0.00 0.00 0.00 81 1016.2
20260905154443 86 322 1.0 1.0 0.00 0.00 0.00 82 1016.2
20260905153938 86 312 0.0 1.0 0.00 0.00 0.00 81 1016.1
20260905153434 87 285 1.0 2.0 0.00 0.00 0.00 80 1016.1
20260905152933 87 296 0.0 0.0 0.00 0.00 0.00 78 1016.1
20260905152427 87 289 0.0 0.0 0.00 0.00 0.00 78 1016.1
20260905151922 85 293 0.0 1.0 0.00 0.00 0.00 82 1016.0
20260905151418 84 302 1.0 2.0 0.00 0.00 0.00 84 1016.0
20260905150918 83 288 1.0 2.0 0.00 0.00 0.00 86 1016.1
20260905150418 84 310 1.0 1.0 0.00 0.00 0.00 85 1016.0
20260905145915 84 308 1.0 1.0 0.00 0.00 0.00 85 1015.9
20260905145410 84 290 0.0 1.0 0.00 0.00 0.00 83 1016.0
20260905144909 84 295 0.0 1.0 0.00 0.00 0.00 84 1015.8
20260905144359 83 286 1.0 1.0 0.00 0.00 0.00 83 1015.5
20260905143857 82 310 0.0 1.0 0.00 0.00 0.00 87 1015.7
20260905143352 82 316 2.0 2.0 0.00 0.00 0.00 87 1015.7
20260905142852 82 297 0.0 0.0 0.00 0.00 0.00 88 1015.9
20260905142350 82 296 0.0 1.0 0.00 0.00 0.00 89 1015.8
20260905141847 81 273 0.0 0.0 0.00 0.00 0.00 89 1015.7
20260905141342 81 272 0.0 1.0 0.00 0.00 0.00 89 1015.7
20260905140837 80 269 1.0 2.0 0.00 0.00 0.00 90 1015.4
20260905140332 80 269 1.0 1.0 0.00 0.00 0.00 92 1015.5
20260905135830 80 272 0.0 2.0 0.00 0.00 0.00 93 1015.6
20260905135326 80 274 0.0 1.0 0.00 0.00 0.00 92 1015.4
20260905134821 79 277 0.0 1.0 0.00 0.00 0.00 91 1015.4
20260905134314 79 281 0.0 1.0 0.00 0.00 0.00 93 1015.6
20260905133809 79 274 1.0 1.0 0.00 0.00 0.00 93 1015.3
20260905133305 79 279 0.0 1.0 0.00 0.00 0.00 93 1015.2
20260905132803 79 258 1.0 1.0 0.00 0.00 0.00 94 1015.2
20260905132259 79 275 1.0 2.0 0.00 0.00 0.00 94 1015.3
20260905131754 78 271 1.0 1.0 0.00 0.00 0.00 93 1015.3
20260905131249 80 272 1.0 1.0 0.00 0.00 0.00 91 1015.0
20260905130744 79 274 0.0 1.0 0.00 0.00 0.00 92 1015.1
20260905130243 78 216 2.0 2.0 0.00 0.00 0.00 93 1015.1
20260905125738 78 251 2.0 2.0 0.00 0.00 0.00 94 1015.2
20260905125233 77 278 0.0 1.0 0.00 0.00 0.00 95 1015.1
20260905124730 75 279 0.0 0.0 0.00 0.00 0.00 97 1014.9
20260905124226 75 279 0.0 0.0 0.00 0.00 0.00 98 1015.2
20260905123725 74 228 1.0 2.0 0.00 0.00 0.00 99 1014.9
20260905123223 74 262 0.0 0.0 0.00 0.00 0.00 99 1015.1
20260905122722 73 262 0.0 0.0 0.00 0.00 0.00 99 1015.0
20260905122217 73 262 0.0 0.0 0.00 0.00 0.00 99 1014.8
20260905121712 73 262 0.0 0.0 0.00 0.00 0.00 99 1014.8
20260905121209 73 262 0.0 0.0 0.00 0.00 0.00 99 1014.8
20260905120707 73 262 0.0 0.0 0.00 0.00 0.00 99 1014.8
20260905120201 72 263 0.0 0.0 0.00 0.00 0.00 99 1014.6
20260905115701 73 262 0.0 0.0 0.00 0.00 0.00 99 1014.4
20260905115151 73 262 0.0 0.0 0.00 0.00 0.00 99 1014.4
20260905114650 73 262 0.0 0.0 0.00 0.00 0.00 99 1014.3
20260905114148 73 262 0.0 0.0 0.00 0.00 0.00 99 1014.2
20260905113643 73 262 0.0 0.0 0.00 0.00 0.00 99 1014.5
20260905113138 73 243 2.0 2.0 0.00 0.00 0.00 99 1014.2
20260905112633 73 261 1.0 1.0 0.00 0.00 0.00 99 1014.3
20260905112130 73 261 0.0 0.0 0.00 0.00 0.00 99 1014.4
20260905111629 73 261 0.0 0.0 0.00 0.00 0.00 99 1014.5
20260905111128 73 261 0.0 1.0 0.00 0.00 0.00 99 1014.5
20260905110628 73 261 0.0 0.0 0.00 0.00 0.00 99 1014.4
20260905110123 73 261 0.0 0.0 0.00 0.00 0.00 99 1014.3
20260905105618 73 261 0.0 0.0 0.00 0.00 0.00 99 1014.4
20260905105117 73 261 0.0 0.0 0.00 0.00 0.00 99 1014.2
20260905104612 73 261 0.0 0.0 0.00 0.00 0.00 99 1014.2
20260905104107 74 261 0.0 0.0 0.00 0.00 0.00 99 1014.3
20260905103603 74 261 0.0 0.0 0.00 0.00 0.00 99 1014.3
20260905103058 74 261 0.0 0.0 0.00 0.00 0.00 98 1014.2
20260905102548 74 261 0.0 0.0 0.00 0.00 0.00 98 1014.1
20260905102045 74 261 0.0 0.0 0.00 0.00 0.00 98 1014.1
20260905101543 75 261 0.0 0.0 0.00 0.00 0.00 98 1014.0
20260905101041 75 261 0.0 1.0 0.00 0.00 0.00 98 1014.0
20260905100538 74 261 0.0 0.0 0.00 0.00 0.00 98 1013.6
20260905100037 75 261 0.0 0.0 0.00 0.00 0.00 98 1013.7
20260905095531 74 261 0.0 0.0 0.00 0.00 0.00 97 1014.0
20260905095026 75 261 0.0 0.0 0.00 0.00 0.00 97 1014.0
20260905094516 75 261 0.0 0.0 0.00 0.00 0.00 97 1013.6
20260905094015 75 261 1.0 1.0 0.00 0.00 0.00 97 1013.9
20260905093510 75 261 1.0 1.0 0.00 0.00 0.00 96 1013.7
20260905093007 76 261 0.0 1.0 0.00 0.00 0.00 95 1013.9
20260905092506 76 261 0.0 0.0 0.00 0.00 0.00 95 1013.7
20260905092002 76 261 1.0 1.0 0.00 0.00 0.00 95 1013.9
20260905091501 76 261 1.0 2.0 0.00 0.00 0.00 95 1013.9
20260905090956 76 262 1.0 1.0 0.00 0.00 0.00 94 1013.9
20260905090451 76 262 1.0 2.0 0.00 0.00 0.00 95 1013.7
20260905085950 76 262 0.0 1.0 0.00 0.00 0.00 95 1014.0
20260905085450 76 262 0.0 1.0 0.00 0.00 0.00 96 1014.1
20260905084946 76 262 0.0 0.0 0.00 0.00 0.00 96 1014.2
20260905084445 76 262 0.0 1.0 0.00 0.00 0.00 96 1014.1
20260905083939 76 262 0.0 1.0 0.00 0.00 0.00 96 1014.3
20260905083436 76 262 1.0 1.0 0.00 0.00 0.00 96 1014.2
20260905082931 76 262 0.0 0.0 0.00 0.00 0.00 96 1014.1
20260905082427 76 262 0.0 0.0 0.00 0.00 0.00 96 1014.2
20260905081922 76 262 0.0 0.0 0.00 0.00 0.00 96 1014.2
20260905081417 76 262 1.0 1.0 0.00 0.00 0.00 95 1014.2
20260905080915 76 262 1.0 1.0 0.00 0.00 0.00 95 1014.3
20260905080410 76 262 1.0 1.0 0.00 0.00 0.00 95 1014.4
20260905075909 76 262 1.0 2.0 0.00 0.00 0.00 96 1014.3
20260905075409 76 262 1.0 1.0 0.00 0.00 0.00 96 1014.2
20260905074908 76 262 0.0 0.0 0.00 0.00 0.00 97 1014.5
20260905074358 76 262 0.0 0.0 0.00 0.00 0.00 97 1014.3
20260905073854 76 262 0.0 0.0 0.00 0.00 0.00 96 1014.3
20260905073349 76 262 0.0 0.0 0.00 0.00 0.00 96 1014.5
20260905072844 76 262 1.0 1.0 0.00 0.00 0.00 96 1014.4
20260905072338 76 262 0.0 0.0 0.00 0.00 0.00 97 1014.2
20260905071835 76 262 0.0 0.0 0.00 0.00 0.00 97 1014.2
20260905071332 76 262 0.0 0.0 0.00 0.00 0.00 97 1014.4
20260905070831 76 262 0.0 0.0 0.00 0.00 0.00 96 1014.3
20260905070328 76 262 0.0 0.0 0.00 0.00 0.00 96 1014.2
20260905065826 77 262 0.0 0.0 0.00 0.00 0.00 96 1014.2